Volver al catálogo

LISA PATHFINDER

ActivoCienciaLEO
NORAD 41043·PAYLOAD·🇪🇺 EU

Lanzado Dec 3, 2015 desde Guiana Space Centre

Loading…

Próximos Pases (próximas 24 horas)

TLE

ObsoletoSource: Space-Track

Época: Dec 14, 2015, 22:10 UTC

1 41043U 15070A   15348.92381764  .00128484  00000-0  53174-3 0  9996
2 41043   5.9720 289.5989 0861767 219.4128 134.0036 14.16792656  1655

Sigue LISA PATHFINDER en tiempo real con AllMySat

Download on the App Store